RH
36 41 36 35 56 69 80 87 93 95 95 95 96 96 87 97 95 95 79 65 70 52 40 40 47 40 41 30 28 26 26 23 19 21 25 28 26 36 40 45 39 37 30 29 31
30 28 45 49 50 74 88 89 91 96 97 97 97 96 96 91 88 94 95 81 83 64 44 46 47 43 41 33 30 26 23 18 18 19 24 28 24 33 36 41 39 36 30 29 29
27 35 36 53 49 68 90 91 89 95 97 97 96 97 96 84 79 91 98 94 88 76 59 46 42 43 37 32 28 25 20 18 18 19 22 28 25 34 34 37 32 31 30 28 28
30 31 36 41 40 62 90 91 89 90 93 96 98 97 94 86 93 97 80 89 87 86 67 53 46 44 39 32 28 24 20 18 19 19 23 28 27 34 34 35 33 32 29 25 28
28 27 29 33 48 64 75 76 76 81 84 92 93 84 89 83 84 89 96 96 84 95 79 52 55 41 34 34 31 27 21 20 21 18 22 29 26 34 35 31 31 31 29 26 30
29 31 31 36 45 55 64 64 66 70 73 80 83 67 73 75 75 84 91 92 85 95 85 64 56 44 33 31 30 26 22 19 18 18 23 27 29 40 39 31 27 27 27 28 30
27 30 39 43 53 55 52 52 55 59 62 67 71 73 72 68 71 77 92 94 76 83 91 66 58 51 38 36 31 25 23 21 16 19 23 28 33 37 37 32 28 27 30 29 34
26 32 33 38 42 45 49 51 54 59 59 62 61 66 68 57 72 77 87 96 83 85 93 77 57 59 41 34 29 25 22 20 17 20 25 30 26 40 36 32 28 27 29 31 32
25 26 31 32 35 45 48 48 54 60 58 55 62 52 58 62 70 73 87 91 79 85 98 85 69 60 41 29 28 24 20 19 20 20 26 30 24 37 37 35 30 29 33 35 36
25 24 24 27 34 37 45 45 55 58 64 76 63 65 65 62 62 65 77 97 87 95 99 86 82 70 45 28 27 20 17 18 20 21 26 29 27 35 38 37 33 30 32 35 36
22 19 20 27 29 35 43 45 53 60 62 65 59 56 61 57 55 68 95 98 91 94 97 87 83 62 43 26 20 22 19 20 19 20 24 28 30 33 37 37 36 31 32 34 35
18 16 18 29 32 33 41 54 55 57 63 58 59 60 62 61 71 77 94 98 94 86 93 92 80 63 49 33 25 25 20 22 25 24 22 28 27 31 38 35 32 30 30 29 35
16 14 15 25 35 38 42 46 50 56 64 56 57 63 60 62 73 84 96 98 97 88 86 83 65 65 55 38 29 25 22 24 24 24 22 28 32 31 38 39 41 37 33 30 29
15 14 14 23 38 41 40 38 40 46 60 57 62 66 62 70 78 83 92 96 97 93 77 82 77 70 60 44 26 24 23 24 24 22 20 23 30 30 31 38 37 37 35 29 31
14 14 14 24 31 40 37 34 39 53 66 70 72 66 67 68 70 94 88 95 92 95 93 91 80 74 60 44 25 24 23 25 25 22 20 23 28 23 25 32 36 38 35 29 29
13 13 13 25 31 34 35 44 50 69 82 83 83 77 73 71 71 87 86 94 96 97 82 79 71 72 59 50 31 30 28 27 27 26 36 22 19 22 23 23 26 29 31 30 26
13 12 12 22 26 30 34 44 67 75 75 82 84 77 81 83 78 88 93 93 98 99 98 89 83 77 66 55 43 35 28 43 42 49 26 18 21 16 20 22 20 23 26 28 26
13 12 13 19 24 29 37 48 60 73 79 77 81 72 81 76 73 87 91 98 97 98 99 98 97 82 67 49 42 32 22 30 37 31 24 29 24 17 17 20 21 22 24 28 30
12 12 12 17 22 28 37 48 68 75 81 84 73 70 74 75 80 93 96 98 97 98 98 96 91 77 65 52 46 40 32 20 29 34 27 26 23 20 16 16 16 18 22 25 26
13 15 13 13 20 27 33 50 59 64 65 83 81 74 79 79 82 94 94 91 92 98 95 96 93 78 73 65 52 43 27 36 38 45 33 27 25 20 15 15 14 17 17 20 21
14 17 14 12 19 24 41 45 52 58 63 75 88 80 76 83 86 90 96 95 96 98 95 96 80 84 75 68 52 51 42 35 31 31 41 36 28 19 18 16 14 13 16 17 18
20 23 17 16 24 35 41 40 46 53 58 63 80 81 77 76 85 88 94 94 91 96 96 98 93 84 71 67 62 54 40 34 37 35 35 38 33 25 20 20 19 16 15 18 19
22 23 16 18 36 38 34 35 37 44 51 58 62 75 76 74 81 80 85 84 89 89 96 98 92 92 96 83 69 60 46 34 31 33 34 36 30 29 27 22 20 20 20 20 19
25 30 26 26 32 33 36 37 39 37 44 50 53 64 69 70 67 72 79 84 89 94 96 98 98 78 65 56 56 61 53 41 36 39 36 33 32 34 30 30 28 25 25 25 26
28 32 29 36 34 36 34 36 37 36 36 41 45 55 69 71 66 72 73 76 84 92 96 97 98 91 72 68 64 64 61 53 46 38 40 38 34 33 44 36 35 35 31 30 29
33 37 32 33 35 36 35 35 36 35 36 38 40 45 56 67 71 74 81 81 83 87 90 92 94 98 84 71 69 68 68 66 62 49 43 41 43 44 45 44 40 39 38 36 34
32 32 35 36 37 40 40 38 36 34 27 30 28 34 50 52 58 65 71 78 83 89 90 89 94 97 96 79 80 87 91 86 78 78 71 59 56 52 40 42 45 46 42 41 41